When you browse on this site, cookies collect data to enhance your experience and personalize the content and advertising you see.
Visit our Privacy Policy to learn more. By continuing to use the site, you agree to this use of cookies and data.
  • în România
  • Lista ţărilor
  • Pe 7 zile
  • Temperatura apei
  • Meteo pe hartă
  • Widget-uri
  • user-avatar
    Intrare

    Meteo pe oră la La-Plata

    Astăzi, 26 Ianuarie, Duminică

    Timp Temperatura Precipitaţii Vânt Presiune Umiditate
    00:00 +26°C° 0 mm 4 m/s 753 mmHg 58%
    01:00 +25°C° 0 mm 3 m/s 753 mmHg 61%
    02:00 +24°C° 0 mm 2 m/s 753 mmHg 67%
    03:00 +24°C° 0 mm 2 m/s 753 mmHg 68%
    04:00 +23°C° 0 mm 2 m/s 753 mmHg 69%
    05:00 +23°C° 0 mm 2 m/s 753 mmHg 70%
    06:00 +25°C° 0 mm 2 m/s 754 mmHg 63%
    07:00 +27°C° 0 mm 2 m/s 754 mmHg 56%
    08:00 +29°C° 0 mm 1 m/s 754 mmHg 54%
    09:00 +31°C° 0 mm 1 m/s 754 mmHg 44%
    10:00 +34°C° 0 mm 2 m/s 754 mmHg 35%
    11:00 +36°C° 0 mm 3 m/s 754 mmHg 25%
    12:00 +37°C° 0 mm 3 m/s 753 mmHg 22%
    13:00 +38°C° 0 mm 3 m/s 753 mmHg 20%
    14:00 +39°C° 0 mm 3 m/s 753 mmHg 18%
    15:00 +38°C° 0 mm 4 m/s 753 mmHg 22%
    16:00 +37°C° 0 mm 4 m/s 752 mmHg 25%
    17:00 +36°C° 0 mm 5 m/s 752 mmHg 29%
    18:00 +33°C° 0 mm 5 m/s 752 mmHg 39%
    19:00 +29°C° 0 mm 5 m/s 753 mmHg 50%
    20:00 +27°C° 0 mm 5 m/s 753 mmHg 61%
    21:00 +26°C° 0 mm 6 m/s 754 mmHg 65%
    22:00 +24°C° 0 mm 7 m/s 755 mmHg 68%
    23:00 +23°C° 0 mm 7 m/s 757 mmHg 72%

    Mâine, 27 Ianuarie, Luni

    Timp Temperatura Precipitaţii Vânt Presiune Umiditate
    00:00 +22°C° 0 mm 7 m/s 757 mmHg 71%
    01:00 +20°C° 0 mm 7 m/s 758 mmHg 71%
    02:00 +17°C° 0 mm 7 m/s 758 mmHg 70%
    03:00 +16°C° 0 mm 7 m/s 758 mmHg 67%
    04:00 +16°C° 0 mm 6 m/s 759 mmHg 65%
    05:00 +15°C° 0 mm 6 m/s 759 mmHg 63%
    06:00 +16°C° 0 mm 6 m/s 760 mmHg 57%
    07:00 +19°C° 0 mm 6 m/s 760 mmHg 51%
    08:00 +20°C° 0 mm 5 m/s 761 mmHg 45%
    09:00 +22°C° 0 mm 5 m/s 761 mmHg 37%
    10:00 +26°C° 0 mm 5 m/s 761 mmHg 29%
    11:00 +28°C° 0 mm 5 m/s 761 mmHg 21%
    12:00 +29°C° 0 mm 5 m/s 760 mmHg 21%
    13:00 +29°C° 0 mm 6 m/s 760 mmHg 21%
    14:00 +30°C° 0 mm 6 m/s 760 mmHg 20%
    15:00 +29°C° 0 mm 7 m/s 759 mmHg 26%
    16:00 +27°C° 0 mm 7 m/s 759 mmHg 32%
    17:00 +26°C° 0 mm 8 m/s 759 mmHg 37%
    18:00 +23°C° 0 mm 7 m/s 759 mmHg 46%
    19:00 +21°C° 0 mm 6 m/s 759 mmHg 54%
    20:00 +19°C° 0 mm 5 m/s 760 mmHg 63%
    21:00 +19°C° 0 mm 5 m/s 760 mmHg 65%
    22:00 +19°C° 0 mm 5 m/s 760 mmHg 68%
    23:00 +19°C° 0 mm 5 m/s 760 mmHg 71%

    Poimâine, 28 Ianuarie, Marţi

    Timp Temperatura Precipitaţii Vânt Presiune Umiditate
    00:00 +17°C° 0 mm 5 m/s 759 mmHg 69%
    01:00 +17°C° 0 mm 5 m/s 759 mmHg 67%
    02:00 +17°C° 0 mm 5 m/s 759 mmHg 66%
    03:00 +17°C° 0 mm 5 m/s 759 mmHg 66%
    04:00 +17°C° 0 mm 5 m/s 759 mmHg 67%
    05:00 +17°C° 0 mm 5 m/s 759 mmHg 67%
    06:00 +19°C° 0 mm 5 m/s 759 mmHg 62%
    07:00 +21°C° 0 mm 5 m/s 758 mmHg 57%
    08:00 +22°C° 0 mm 5 m/s 758 mmHg 52%
    09:00 +25°C° 0 mm 4 m/s 758 mmHg 45%
    10:00 +27°C° 0 mm 4 m/s 757 mmHg 38%
    11:00 +29°C° 0 mm 3 m/s 757 mmHg 31%
    12:00 +32°C° 0 mm 4 m/s 756 mmHg 28%
    13:00 +33°C° 0 mm 4 m/s 755 mmHg 24%
    14:00 +35°C° 0 mm 4 m/s 754 mmHg 20%
    15:00 +35°C° 0 mm 4 m/s 753 mmHg 21%
    16:00 +34°C° 0 mm 5 m/s 753 mmHg 23%
    17:00 +34°C° 0 mm 5 m/s 752 mmHg 24%
    18:00 +32°C° 0 mm 5 m/s 752 mmHg 34%
    19:00 +28°C° 0 mm 5 m/s 752 mmHg 44%
    20:00 +26°C° 0 mm 4 m/s 751 mmHg 54%
    21:00 +27°C° 0 mm 5 m/s 751 mmHg 51%
    22:00 +27°C° 0 mm 5 m/s 751 mmHg 48%
    23:00 +28°C° 0 mm 5 m/s 751 mmHg 46%

    29 Ianuarie, Miercuri

    Timp Temperatura Precipitaţii Vânt Presiune Umiditate
    00:00 +28°C° 0 mm 5 m/s 751 mmHg 44%
    01:00 +28°C° 0 mm 6 m/s 751 mmHg 43%
    02:00 +28°C° 0 mm 6 m/s 750 mmHg 42%
    03:00 +27°C° 0 mm 6 m/s 751 mmHg 45%
    04:00 +27°C° 0 mm 7 m/s 751 mmHg 48%
    05:00 +27°C° 0 mm 7 m/s 751 mmHg 51%
    06:00 +27°C° 0 mm 6 m/s 752 mmHg 50%
    07:00 +27°C° 0 mm 6 m/s 753 mmHg 49%
    08:00 +27°C° 0 mm 5 m/s 753 mmHg 48%
    09:00 +29°C° 0 mm 4 m/s 753 mmHg 43%
    10:00 +31°C° 0 mm 3 m/s 753 mmHg 38%
    11:00 +34°C° 0 mm 2 m/s 752 mmHg 33%
    12:00 +33°C° 0 mm 3 m/s 753 mmHg 36%
    13:00 +32°C° 0 mm 4 m/s 753 mmHg 39%
    14:00 +30°C° 0 mm 5 m/s 753 mmHg 41%
    15:00 +29°C° 0 mm 5 m/s 753 mmHg 43%
    16:00 +29°C° 0 mm 6 m/s 753 mmHg 45%
    17:00 +28°C° 0 mm 6 m/s 753 mmHg 47%
    18:00 +26°C° 0 mm 6 m/s 754 mmHg 57%
    19:00 +23°C° 0 mm 7 m/s 755 mmHg 66%
    20:00 +21°C° 0 mm 7 m/s 756 mmHg 76%
    21:00 +21°C° 0 mm 7 m/s 757 mmHg 74%
    22:00 +20°C° 0 mm 7 m/s 757 mmHg 72%
    23:00 +18°C° 0 mm 7 m/s 758 mmHg 71%

    30 Ianuarie, Joi

    Timp Temperatura Precipitaţii Vânt Presiune Umiditate
    00:00 +17°C° 0 mm 6 m/s 758 mmHg 74%
    01:00 +16°C° 0 mm 5 m/s 758 mmHg 77%
    02:00 +15°C° 0 mm 4 m/s 758 mmHg 80%
    03:00 +14°C° 0 mm 5 m/s 758 mmHg 82%
    04:00 +13°C° 0 mm 5 m/s 758 mmHg 84%
    05:00 +13°C° 0 mm 5 m/s 758 mmHg 86%
    06:00 +15°C° 0 mm 5 m/s 758 mmHg 77%
    07:00 +18°C° 0 mm 4 m/s 759 mmHg 69%
    08:00 +20°C° 0 mm 4 m/s 759 mmHg 60%
    09:00 +22°C° 0 mm 3 m/s 759 mmHg 49%
    10:00 +25°C° 0 mm 2 m/s 759 mmHg 38%
    11:00 +28°C° 0 mm 2 m/s 759 mmHg 27%
    12:00 +29°C° 0 mm 2 m/s 758 mmHg 27%
    13:00 +29°C° 0 mm 3 m/s 758 mmHg 26%
    14:00 +30°C° 0 mm 4 m/s 757 mmHg 26%
    15:00 +29°C° 0 mm 4 m/s 757 mmHg 32%
    16:00 +28°C° 0 mm 5 m/s 757 mmHg 37%
    17:00 +27°C° 0 mm 5 m/s 756 mmHg 43%
    18:00 +25°C° 0 mm 5 m/s 757 mmHg 50%
    19:00 +22°C° 0 mm 5 m/s 757 mmHg 58%
    20:00 +20°C° 0 mm 4 m/s 757 mmHg 65%
    21:00 +20°C° 0 mm 4 m/s 758 mmHg 68%
    22:00 +20°C° 0 mm 4 m/s 758 mmHg 71%
    23:00 +20°C° 0 mm 4 m/s 758 mmHg 75%

    31 Ianuarie, Vineri

    Timp Temperatura Precipitaţii Vânt Presiune Umiditate
    00:00 +20°C° 0 mm 4 m/s 758 mmHg 76%
    01:00 +19°C° 0 mm 4 m/s 758 mmHg 78%
    02:00 +19°C° 0 mm 4 m/s 758 mmHg 79%
    03:00 +19°C° 0 mm 3 m/s 758 mmHg 81%
    04:00 +19°C° 0 mm 3 m/s 758 mmHg 82%
    05:00 +19°C° 0 mm 3 m/s 757 mmHg 84%
    06:00 +21°C° 0 mm 3 m/s 758 mmHg 71%
    07:00 +25°C° 0 mm 4 m/s 758 mmHg 59%
    08:00 +27°C° 0 mm 4 m/s 758 mmHg 46%
    09:00 +29°C° 0 mm 4 m/s 758 mmHg 37%
    10:00 +32°C° 0 mm 4 m/s 758 mmHg 29%
    11:00 +34°C° 0 mm 3 m/s 758 mmHg 20%
    12:00 +35°C° 0 mm 3 m/s 757 mmHg 18%
    13:00 +36°C° 0 mm 3 m/s 757 mmHg 15%
    14:00 +37°C° 0 mm 3 m/s 756 mmHg 13%
    15:00 +37°C° 0 mm 3 m/s 756 mmHg 13%
    16:00 +36°C° 0 mm 4 m/s 755 mmHg 12%
    17:00 +36°C° 0 mm 4 m/s 755 mmHg 12%
    18:00 +33°C° 0 mm 4 m/s 755 mmHg 18%
    19:00 +30°C° 0 mm 4 m/s 755 mmHg 24%
    20:00 +27°C° 0 mm 4 m/s 756 mmHg 30%
    21:00 +27°C° 0 mm 5 m/s 756 mmHg 33%
    22:00 +28°C° 0 mm 6 m/s 756 mmHg 35%
    23:00 +28°C° 0 mm 6 m/s 756 mmHg 38%
    Arată mai mult